When you browse on this site, cookies collect data to enhance your experience and personalize the content and advertising you see.
Visit our Privacy Policy to learn more. By continuing to use the site, you agree to this use of cookies and data.

Hourly Weather Salzburg

Today, 12 August, Wednesday

Time Temperature Precipitation Wind Pressure Humidity
00:00 +12°C° 0 mm 1 mps 629 mmHg 90%
01:00 +11°C° 0 mm 1 mps 629 mmHg 90%
02:00 +11°C° 0 mm 1 mps 629 mmHg 90%
03:00 +11°C° 0 mm 1 mps 629 mmHg 89%
04:00 +11°C° 0 mm 1 mps 629 mmHg 89%
05:00 +12°C° 0 mm 1 mps 629 mmHg 87%
06:00 +13°C° 0 mm 1 mps 630 mmHg 85%
07:00 +15°C° 0 mm 1 mps 631 mmHg 83%
08:00 +18°C° 0 mm 1 mps 631 mmHg 72%
09:00 +20°C° 0 mm 1 mps 632 mmHg 61%
10:00 +23°C° 0 mm 1 mps 633 mmHg 50%
11:00 +23°C° 0 mm 1 mps 633 mmHg 47%
12:00 +24°C° 0 mm 1 mps 633 mmHg 44%
13:00 +25°C° 0 mm 1 mps 633 mmHg 41%
14:00 +24°C° 0.2 mm 1 mps 633 mmHg 45%
15:00 +24°C° 0.2 mm 1 mps 633 mmHg 49%
16:00 +23°C° 0.2 mm 1 mps 632 mmHg 53%
17:00 +21°C° 0.5 mm 1 mps 632 mmHg 64%
18:00 +19°C° 0.5 mm 1 mps 631 mmHg 75%
19:00 +16°C° 0.5 mm 1 mps 630 mmHg 86%
20:00 +15°C° 0 mm 1 mps 630 mmHg 87%
21:00 +14°C° 0 mm 1 mps 630 mmHg 88%
22:00 +13°C° 0 mm 2 mps 629 mmHg 89%
23:00 +13°C° 0 mm 2 mps 629 mmHg 88%

Tomorrow, 13 August, Thursday

Time Temperature Precipitation Wind Pressure Humidity
00:00 +12°C° 0 mm 2 mps 629 mmHg 88%
01:00 +12°C° 0 mm 2 mps 629 mmHg 87%
02:00 +12°C° 0 mm 2 mps 629 mmHg 86%
03:00 +12°C° 0 mm 2 mps 628 mmHg 85%
04:00 +12°C° 0 mm 2 mps 628 mmHg 84%
05:00 +13°C° 0 mm 1 mps 629 mmHg 82%
06:00 +14°C° 0 mm 1 mps 629 mmHg 79%
07:00 +15°C° 0 mm 1 mps 630 mmHg 77%
08:00 +19°C° 0 mm 1 mps 631 mmHg 68%
09:00 +21°C° 0 mm 1 mps 631 mmHg 60%
10:00 +24°C° 0 mm 1 mps 632 mmHg 51%
11:00 +23°C° 0.3 mm 1 mps 632 mmHg 53%
12:00 +23°C° 0.3 mm 1 mps 631 mmHg 55%
13:00 +23°C° 0.3 mm 2 mps 631 mmHg 57%
14:00 +21°C° 1.8 mm 1 mps 630 mmHg 69%
15:00 +19°C° 1.8 mm 1 mps 630 mmHg 81%
16:00 +16°C° 1.8 mm 1 mps 629 mmHg 93%
17:00 +15°C° 3.9 mm 1 mps 629 mmHg 95%
18:00 +14°C° 3.9 mm 1 mps 628 mmHg 96%
19:00 +13°C° 3.9 mm 1 mps 628 mmHg 98%
20:00 +13°C° 0.3 mm 1 mps 628 mmHg 97%
21:00 +13°C° 0.3 mm 1 mps 628 mmHg 96%
22:00 +12°C° 0.3 mm 1 mps 628 mmHg 96%
23:00 +12°C° 0 mm 1 mps 628 mmHg 95%

Day after tomorrow, 14 August, Friday

Time Temperature Precipitation Wind Pressure Humidity
00:00 +12°C° 0 mm 1 mps 628 mmHg 94%
01:00 +11°C° 0 mm 1 mps 628 mmHg 93%
02:00 +11°C° 0 mm 1 mps 627 mmHg 93%
03:00 +11°C° 0 mm 1 mps 627 mmHg 92%
04:00 +10°C° 0 mm 0 mps 627 mmHg 92%
05:00 +11°C° 0 mm 0 mps 627 mmHg 91%
06:00 +11°C° 0 mm 0 mps 628 mmHg 90%
07:00 +12°C° 0 mm 0 mps 628 mmHg 89%
08:00 +15°C° 0.3 mm 1 mps 629 mmHg 85%
09:00 +16°C° 0.3 mm 1 mps 629 mmHg 81%
10:00 +18°C° 0.3 mm 1 mps 630 mmHg 77%
11:00 +18°C° 1.7 mm 1 mps 629 mmHg 82%
12:00 +16°C° 1.7 mm 1 mps 629 mmHg 87%
13:00 +16°C° 1.7 mm 2 mps 629 mmHg 91%
14:00 +15°C° 2.7 mm 1 mps 628 mmHg 94%
15:00 +14°C° 2.7 mm 1 mps 628 mmHg 96%
16:00 +13°C° 2.7 mm 1 mps 627 mmHg 98%
17:00 +12°C° 4.6 mm 1 mps 627 mmHg 98%
18:00 +12°C° 4.6 mm 1 mps 627 mmHg 98%
19:00 +11°C° 4.6 mm 1 mps 627 mmHg 98%
20:00 +11°C° 2.7 mm 1 mps 627 mmHg 98%
21:00 +11°C° 2.7 mm 1 mps 627 mmHg 98%
22:00 +11°C° 2.7 mm 1 mps 628 mmHg 97%
23:00 +11°C° 0.3 mm 1 mps 628 mmHg 96%

15 August, Saturday

Time Temperature Precipitation Wind Pressure Humidity
00:00 +11°C° 0.3 mm 1 mps 627 mmHg 95%
01:00 +10°C° 0.3 mm 1 mps 627 mmHg 94%
02:00 +10°C° 0.1 mm 1 mps 627 mmHg 93%
03:00 +10°C° 0.1 mm 1 mps 627 mmHg 93%
04:00 +10°C° 0.1 mm 1 mps 627 mmHg 93%
05:00 +11°C° 0.2 mm 1 mps 627 mmHg 93%
06:00 +10°C° 0.2 mm 0 mps 627 mmHg 93%
07:00 +10°C° 0.2 mm 0 mps 627 mmHg 92%
08:00 +11°C° 0 mm 0 mps 628 mmHg 88%
09:00 +13°C° 0 mm 1 mps 628 mmHg 85%
10:00 +14°C° 0 mm 1 mps 629 mmHg 81%
11:00 +16°C° 0 mm 1 mps 629 mmHg 73%
12:00 +18°C° 0 mm 1 mps 629 mmHg 65%
13:00 +19°C° 0 mm 2 mps 630 mmHg 57%
14:00 +18°C° 0.1 mm 2 mps 629 mmHg 60%
15:00 +18°C° 0.1 mm 2 mps 629 mmHg 62%
16:00 +18°C° 0.1 mm 2 mps 629 mmHg 65%
17:00 +16°C° 0.2 mm 1 mps 628 mmHg 74%
18:00 +14°C° 0.2 mm 1 mps 628 mmHg 83%
19:00 +12°C° 0.2 mm 0 mps 627 mmHg 93%
20:00 +12°C° 0 mm 1 mps 627 mmHg 93%
21:00 +11°C° 0 mm 1 mps 627 mmHg 93%
22:00 +10°C° 0 mm 1 mps 627 mmHg 93%
23:00 +10°C° 0 mm 1 mps 627 mmHg 93%

16 August, Sunday

Time Temperature Precipitation Wind Pressure Humidity
00:00 +10°C° 0 mm 1 mps 626 mmHg 92%
01:00 +10°C° 0 mm 1 mps 626 mmHg 92%
02:00 +9°C° 0 mm 1 mps 626 mmHg 91%
03:00 +9°C° 0 mm 1 mps 626 mmHg 91%
04:00 +9°C° 0 mm 1 mps 626 mmHg 90%
05:00 +10°C° 0 mm 1 mps 626 mmHg 88%
06:00 +11°C° 0 mm 1 mps 627 mmHg 85%
07:00 +13°C° 0 mm 1 mps 627 mmHg 83%
08:00 +15°C° 0 mm 1 mps 628 mmHg 72%
09:00 +19°C° 0 mm 1 mps 629 mmHg 61%
10:00 +20°C° 0 mm 0 mps 630 mmHg 50%
11:00 +22°C° 0 mm 1 mps 630 mmHg 46%
12:00 +23°C° 0 mm 1 mps 630 mmHg 41%
13:00 +24°C° 0 mm 1 mps 630 mmHg 37%
14:00 +23°C° 0 mm 1 mps 630 mmHg 40%
15:00 +23°C° 0 mm 2 mps 630 mmHg 43%
16:00 +21°C° 0 mm 2 mps 629 mmHg 46%
17:00 +20°C° 0.1 mm 1 mps 628 mmHg 60%
18:00 +18°C° 0.1 mm 1 mps 628 mmHg 73%
19:00 +13°C° 0.1 mm 0 mps 627 mmHg 86%
20:00 +14°C° 0 mm 1 mps 627 mmHg 86%
21:00 +13°C° 0 mm 1 mps 627 mmHg 86%
22:00 +12°C° 0 mm 2 mps 627 mmHg 86%
23:00 +12°C° 0 mm 2 mps 626 mmHg 86%

17 August, Monday

Time Temperature Precipitation Wind Pressure Humidity
00:00 +12°C° 0 mm 2 mps 626 mmHg 85%
01:00 +10°C° 0 mm 2 mps 626 mmHg 85%
02:00 +10°C° 0 mm 2 mps 626 mmHg 85%
03:00 +10°C° 0 mm 2 mps 626 mmHg 84%
04:00 +10°C° 0 mm 2 mps 626 mmHg 83%
05:00 +12°C° 0 mm 2 mps 626 mmHg 81%
06:00 +13°C° 0 mm 2 mps 626 mmHg 79%
07:00 +14°C° 0 mm 2 mps 627 mmHg 76%
08:00 +18°C° 0 mm 1 mps 627 mmHg 68%
09:00 +21°C° 0 mm 1 mps 628 mmHg 59%
10:00 +23°C° 0 mm 1 mps 629 mmHg 50%
11:00 +24°C° 0.2 mm 1 mps 629 mmHg 48%
12:00 +24°C° 0.2 mm 1 mps 629 mmHg 47%
13:00 +24°C° 0.2 mm 2 mps 629 mmHg 46%
14:00 +21°C° 1.4 mm 2 mps 628 mmHg 59%
15:00 +20°C° 1.4 mm 1 mps 627 mmHg 71%
16:00 +18°C° 1.4 mm 1 mps 627 mmHg 84%
17:00 +16°C° 1.2 mm 1 mps 626 mmHg 88%
18:00 +14°C° 1.2 mm 1 mps 626 mmHg 93%
19:00 +13°C° 1.2 mm 1 mps 626 mmHg 97%
20:00 +12°C° 0.1 mm 1 mps 626 mmHg 97%
21:00 +11°C° 0.1 mm 1 mps 626 mmHg 96%
22:00 +11°C° 0.1 mm 1 mps 626 mmHg 96%
23:00 +11°C° 0 mm 1 mps 625 mmHg 95%
Show more